Theta_e
315 316 316 317 317 317 316 317 319 319 318 318 318 319 319 319 319 319 318 318 318 320 321 320 319 319 321 324 316 315 316 318 333 335 334 337 342 337 327 325 330 331 331 328
316 316 316 315 316 316 316 317 317 317 317 317 318 318 318 319 319 318 318 318 318 318 318 319 318 318 322 319 315 315 314 315 317 326 333 332 336 345 342 336 332 335 337 337
316 316 315 315 315 315 315 316 317 317 318 318 317 318 318 318 318 317 317 317 317 317 317 317 317 319 320 320 316 314 314 315 314 316 326 332 331 342 345 341 338 331 332 341
316 316 315 314 314 315 316 316 316 316 317 318 318 318 319 318 318 317 317 317 317 317 316 316 318 318 318 319 320 321 314 314 313 315 316 318 329 334 337 341 343 338 334 334
316 316 315 314 314 315 315 316 316 317 317 317 317 317 317 318 318 317 317 317 318 319 318 317 317 317 317 318 319 321 317 313 313 313 314 315 319 327 330 335 343 340 341 335
316 316 316 315 315 315 315 315 316 316 316 316 317 317 317 318 318 318 317 316 316 316 318 318 317 317 316 317 318 320 318 323 315 317 313 313 314 319 322 329 332 335 342 345
317 317 316 316 315 315 315 315 316 317 317 318 318 317 317 317 317 317 318 315 314 315 317 317 317 317 317 317 318 320 320 322 321 322 325 326 320 315 315 315 321 331 334 337
317 317 317 318 315 315 316 317 316 320 320 319 317 317 317 316 316 315 314 314 315 316 317 317 317 317 318 317 317 319 321 323 324 324 325 326 326 326 326 326 325 329 329 331
321 317 316 316 316 316 316 317 317 318 318 318 318 319 318 316 315 315 314 315 317 316 316 316 316 316 318 318 318 319 321 321 321 324 326 328 328 327 327 324 324 330 331 328
317 317 316 316 316 316 316 316 318 318 317 317 317 317 317 317 317 315 316 316 316 316 315 315 315 315 316 317 318 319 320 320 320 320 323 326 328 329 329 328 327 321 323 326
316 318 317 315 317 317 316 315 317 317 321 322 320 318 317 317 316 317 316 316 316 316 316 316 316 316 316 316 317 318 319 319 320 320 320 322 326 328 330 330 330 330 325 318
315 317 318 315 315 316 316 317 319 321 320 319 318 317 316 316 317 317 316 316 316 316 316 316 316 316 316 316 316 316 316 317 319 319 319 319 321 324 327 330 332 332 332 328
316 317 318 316 316 317 317 316 316 316 318 320 321 320 317 317 317 316 316 316 316 316 316 316 316 316 316 316 315 315 315 317 317 317 317 318 319 321 324 326 330 333 335 336
312 315 315 316 315 315 315 316 315 315 320 317 317 316 316 317 317 317 316 316 316 316 316 316 315 315 316 315 315 315 315 315 315 316 316 317 318 320 322 324 328 331 332 336
312 313 313 313 313 312 312 312 313 315 316 316 315 315 316 316 317 316 315 315 316 315 316 316 315 315 315 315 314 314 314 314 315 315 315 316 316 318 321 323 326 329 331 336
312 315 313 314 313 313 314 313 313 313 313 314 314 314 314 314 314 315 315 317 317 316 315 315 316 316 315 315 315 314 314 314 314 314 314 315 316 317 319 322 325 328 331 337
313 314 314 316 313 314 314 313 313 313 314 313 313 313 315 314 315 317 316 317 316 315 315 315 315 315 315 315 314 314 313 313 313 313 313 314 316 317 319 323 326 328 330 337
312 312 313 314 313 314 313 315 315 315 315 315 316 316 317 316 316 316 316 316 314 314 314 314 314 314 313 312 312 311 311 311 312 313 313 314 315 317 319 323 325 330 328 338
313 313 316 315 315 314 314 316 316 317 315 314 315 315 316 315 315 314 314 314 314 314 313 312 312 311 311 311 311 309 309 310 311 311 313 314 315 318 320 323 326 329 329 338
312 312 314 315 318 316 315 314 315 315 314 317 317 316 315 314 316 316 314 314 312 312 312 311 310 310 310 309 309 310 310 309 310 311 313 315 317 320 322 325 328 327 337 337
314 313 314 314 315 314 315 316 314 316 316 315 313 313 313 314 314 313 311 311 311 311 310 310 309 309 310 309 309 308 309 310 311 311 313 315 319 321 323 325 326 335 336 340
316 316 316 316 317 318 315 314 316 316 313 313 313 313 312 312 311 311 311 310 310 309 310 309 308 309 309 307 307 308 309 310 313 313 315 318 320 321 323 326 326 335 335 336
315 317 319 315 317 315 313 313 313 312 312 311 310 310 310 309 309 309 309 309 308 308 308 308 307 308 308 308 308 309 311 312 313 316 318 319 322 323 326 325 330 335 336 338
313 312 315 314 313 313 311 310 311 309 310 309 308 308 308 307 307 306 306 306 307 307 307 307 308 308 308 308 310 311 313 316 317 316 314 321 323 325 326 329 335 337 337 338
312 313 310 311 311 309 309 308 309 309 309 307 307 308 306 305 305 305 305 306 306 306 306 306 307 307 308 310 311 312 316 317 318 321 322 322 325 326 327 333 334 336 338 339
307 308 308 309 306 306 308 306 306 307 308 307 307 305 304 304 304 304 304 304 305 305 305 305 306 307 308 309 312 314 317 320 319 320 322 325 325 327 332 333 334 336 336 335
Wind_Speed
18 11 14 17 17 16 19 15 19 16 9 7 12 17 19 20 22 20 21 23 22 20 16 15 14 8 6 8 11 10 7 9 26 38 36 22 26 34 37 38 34 33 31 34
12 15 17 18 13 13 16 19 19 17 14 10 16 19 19 20 18 24 23 25 24 22 20 19 14 13 9 10 13 11 13 8 12 19 38 37 22 20 23 32 38 34 31 34
16 16 11 12 12 16 18 18 17 17 12 12 14 22 22 21 28 28 29 28 23 22 17 18 18 15 10 8 11 14 17 19 13 16 18 30 36 31 23 28 39 38 42 32
15 13 10 12 16 17 17 17 16 16 12 14 15 13 14 5 10 12 18 15 14 17 18 16 15 14 9 6 5 5 17 22 18 19 18 17 19 23 27 29 25 29 43 48
16 11 11 14 18 13 14 15 12 11 16 17 20 13 14 20 19 13 12 16 14 10 11 15 13 11 8 6 4 2 7 9 11 14 20 19 17 18 20 22 19 23 30 33
23 23 14 15 12 12 13 18 14 16 14 17 21 19 17 14 14 14 14 12 12 9 11 9 8 8 8 7 5 4 4 6 9 12 13 16 21 24 20 15 18 23 24 27
21 23 24 22 18 16 14 12 13 16 15 17 18 11 12 4 2 12 18 14 9 11 10 11 9 9 9 8 8 5 5 8 9 9 10 12 17 20 22 25 27 25 25 27
18 19 16 16 19 18 13 15 11 12 13 13 4 8 9 9 14 7 4 9 8 10 12 6 8 9 10 11 9 8 7 7 8 9 11 12 16 15 17 20 21 22 23 25
15 18 5 10 16 16 20 18 16 19 21 18 14 21 8 12 8 7 12 12 12 8 7 10 11 10 10 11 11 11 10 10 10 12 12 12 13 16 20 24 25 24 26 29
14 15 18 4 10 16 20 5 10 11 18 19 17 20 14 19 17 13 10 10 13 7 12 16 18 16 14 13 14 15 15 15 14 13 14 14 15 16 19 21 24 27 29 30
12 9 14 6 11 17 15 18 14 13 7 6 13 8 9 10 12 15 6 5 8 14 17 18 19 18 18 17 17 18 18 17 17 16 15 16 17 18 19 21 23 25 29 32
7 6 10 17 15 14 14 14 17 5 13 15 15 17 8 4 8 6 7 9 18 15 15 18 18 17 18 18 19 20 21 21 20 20 19 19 20 20 22 21 22 23 26 28
7 6 9 13 11 9 15 15 17 18 18 22 16 15 2 11 15 10 16 18 15 14 16 16 17 18 18 18 19 21 22 21 22 22 22 22 23 25 26 26 22 24 23 26
1 13 16 14 21 6 5 14 15 11 12 19 21 25 9 9 13 20 19 20 16 17 14 16 17 18 18 19 21 21 22 22 22 23 24 25 26 26 28 29 28 24 25 25
9 17 18 19 21 22 22 20 20 19 22 19 19 21 17 21 21 23 23 22 22 22 20 20 19 21 21 23 24 26 25 25 25 25 26 27 29 29 28 29 29 27 27 25
13 18 19 22 22 22 22 21 22 23 26 25 26 27 23 27 31 26 20 22 15 16 21 20 22 26 28 30 28 28 30 30 29 30 32 31 29 29 30 30 31 29 28 25
11 8 8 15 16 12 16 19 19 21 24 21 22 22 17 21 20 19 9 13 17 21 26 28 29 31 30 29 29 33 37 38 38 38 37 34 32 31 30 29 30 31 31 27
13 13 7 11 16 17 13 14 12 12 14 12 16 15 21 18 20 17 16 17 22 27 28 29 30 32 35 38 40 40 41 43 41 41 39 35 32 31 30 30 31 32 32 30
12 8 4 5 9 17 22 5 11 12 15 18 18 20 18 21 24 23 22 24 26 27 30 34 35 37 40 37 34 40 42 39 40 41 38 35 31 31 30 31 32 35 32 32
3 7 6 7 6 7 10 3 6 12 15 14 18 18 17 23 17 17 29 31 34 35 38 38 38 39 40 40 36 37 38 41 40 36 36 32 30 30 31 30 32 35 31 34
5 4 11 11 8 10 10 13 8 8 10 28 28 30 29 17 21 35 36 36 36 37 40 39 36 41 34 35 35 39 40 38 35 34 34 32 29 32 31 31 35 28 32 33
4 4 5 7 6 8 9 15 6 16 31 30 30 31 31 34 36 39 37 38 39 40 40 38 41 39 36 39 36 39 38 33 31 31 31 30 30 31 30 32 34 28 35 34
4 1 4 5 5 22 25 21 27 28 24 32 29 33 37 38 42 44 42 42 43 44 39 38 35 34 37 39 37 36 33 33 34 30 27 28 26 29 29 32 28 30 34 36
7 12 7 11 3 20 26 29 23 26 30 32 34 35 39 44 43 43 42 39 37 35 33 31 31 34 39 36 34 32 28 27 26 25 32 28 30 28 26 25 33 38 41 43
8 13 9 12 17 29 14 23 25 30 35 41 37 37 41 39 37 36 35 34 34 33 34 35 35 36 39 36 31 29 24 26 27 26 28 29 27 21 24 29 34 38 38 41
4 4 3 5 25 22 28 33 43 46 40 42 34 43 37 34 35 33 34 34 33 33 34 35 36 35 39 37 29 24 21 22 25 28 23 21 17 17 34 35 34 36 35 33
Wind_Direction
235 248 246 247 253 257 279 291 284 293 244 255 263 271 261 234 207 227 239 243 241 230 238 217 219 240 233 198 223 242 249 231 216 224 242 239 247 237 249 244 249 250 258 260
232 247 254 270 276 280 272 264 259 261 256 249 260 263 261 257 249 244 245 236 235 238 232 235 230 238 242 249 240 243 255 243 227 218 225 243 247 249 252 243 245 250 268 268
258 279 316 288 261 248 256 258 261 262 261 238 265 266 258 252 250 247 246 243 240 224 216 232 227 233 231 237 249 229 247 254 245 239 223 224 242 244 232 239 232 236 262 271
278 284 284 258 250 259 256 253 241 274 272 260 246 274 248 306 215 236 234 229 226 224 219 214 213 220 225 221 248 262 240 242 261 245 247 245 236 240 247 241 228 236 233 258
259 261 238 253 252 251 267 285 295 258 258 269 258 260 260 254 217 192 219 209 201 195 216 209 209 210 228 228 216 215 263 277 259 249 251 242 257 252 251 244 243 238 241 248
270 260 255 264 264 265 293 275 251 258 255 252 251 248 261 243 215 183 195 195 201 217 194 208 219 223 226 227 218 226 233 237 259 260 261 260 253 249 250 251 260 249 257 253
248 251 244 223 241 242 233 256 268 249 229 244 241 234 242 18 150 195 191 191 220 228 214 236 247 257 253 255 247 255 249 279 281 268 253 252 258 259 257 249 240 242 247 248
274 280 257 215 230 253 215 248 240 262 278 291 111 232 245 245 177 212 262 250 250 230 233 246 270 270 274 269 264 267 276 283 283 277 277 270 259 260 263 264 262 250 251 253
284 294 24 320 252 261 256 218 258 278 269 279 267 258 190 169 189 210 232 218 211 216 251 268 275 279 285 282 280 281 280 288 296 297 289 279 271 271 264 250 244 250 254 249
290 286 280 265 278 264 262 216 245 251 253 250 255 266 265 189 190 196 203 206 225 248 281 277 275 277 278 275 273 274 277 282 289 292 290 288 281 277 276 275 269 260 253 246
308 287 265 278 243 262 241 231 222 238 211 264 276 260 344 159 186 180 192 238 250 258 285 284 282 278 273 272 273 274 273 274 277 282 285 282 277 276 276 273 270 266 265 262
320 286 280 267 258 247 269 213 258 232 256 259 264 259 175 167 251 195 208 244 254 284 285 282 282 279 277 272 272 274 275 272 274 276 280 282 280 278 276 279 275 270 273 265
359 262 278 265 262 223 231 234 236 233 244 257 267 265 8 309 196 204 229 259 281 274 279 276 282 285 279 277 280 277 274 273 277 280 277 276 277 280 277 275 278 277 268 263
301 275 276 276 296 157 256 289 286 260 271 263 253 262 197 216 291 259 248 267 278 272 271 275 278 282 284 287 284 279 277 275 275 276 280 279 275 274 277 277 275 274 268 260
253 266 274 273 285 287 283 268 249 243 271 267 274 273 259 263 236 262 287 281 274 272 268 264 265 272 278 283 287 285 279 278 276 277 276 274 276 272 272 273 272 273 272 254
244 254 266 275 278 272 284 268 264 254 250 250 253 258 264 273 278 277 297 287 273 281 280 278 280 283 284 284 282 280 282 282 280 279 278 277 271 265 266 268 266 269 268 249
275 277 287 271 271 281 267 257 256 252 255 256 259 263 263 265 277 263 277 281 295 291 292 290 287 284 285 287 283 278 279 279 276 276 276 273 268 264 260 262 262 262 266 242
262 269 285 281 295 276 269 324 286 296 289 281 271 278 274 294 313 301 288 300 288 277 287 294 294 293 288 284 279 278 280 279 273 272 271 266 263 260 258 259 259 257 262 238
243 257 245 249 274 289 292 358 345 338 305 306 283 295 306 319 310 290 285 292 306 301 297 289 285 286 286 284 283 282 280 273 270 267 264 261 258 255 256 256 257 256 253 231
229 231 239 229 264 276 315 1 339 319 287 19 353 336 320 307 293 295 323 313 304 294 288 285 289 292 289 287 283 276 273 273 266 262 259 256 253 253 255 257 256 258 234 223
197 191 217 237 257 274 1 345 335 274 321 328 319 318 323 315 301 301 298 290 289 286 286 290 296 293 282 284 280 281 277 270 265 261 259 255 255 250 251 253 258 239 223 213
237 243 216 246 242 259 13 343 308 317 312 318 317 309 301 300 301 299 295 290 292 294 292 291 291 284 283 284 284 280 274 269 263 259 257 253 251 252 256 257 246 237 220 210
306 340 274 268 294 314 321 322 314 318 306 310 307 306 306 307 303 300 299 294 292 290 288 288 285 283 280 286 284 278 274 266 266 255 245 255 254 252 251 253 229 214 199 186
299 310 280 318 269 321 325 308 314 315 313 313 308 305 307 304 298 292 292 292 291 290 288 287 286 285 284 282 281 277 270 264 258 251 245 257 259 255 248 221 193 179 170 170
354 325 351 292 293 327 307 321 317 309 315 313 309 305 301 295 291 290 289 289 287 286 285 285 282 281 281 284 281 274 264 264 253 252 248 255 252 238 211 189 185 177 178 178
10 348 312 285 304 295 295 297 298 298 310 311 309 311 303 297 292 292 288 284 284 284 284 283 280 278 276 281 277 270 256 255 253 259 264 258 219 197 178 163 156 159 168 171